Location: Unspecified
(51.0950°N, 12.9690°E)
Time: 18:25:00
(UTC+00:00)

ISS - Pass Details

Date: 03 December 2023
Orbit: 414 x 417 km, 51.6° (Epoch: 23 February)

Event Time Altitude Azimuth Distance (km) Brightness Sun altitude
Rises 15:42:26 0° 284° (WNW) 2,375 0.9 -6.0°
Reaches altitude 10° 15:44:32 10° 281° (W) 1,512 -0.1 -6.3°
Maximum altitude 15:47:54 65° 200° (SSW) 471 -3.3 -6.8°
Drops below altitude 10° 15:51:18 10° 117° (ESE) 1,519 -1.3 -7.3°
Sets 15:53:25 0° 115° (ESE) 2,388 -0.3 -7.6°
